Wind_Speed
7 7 6 5 3 3 2 2 2 1 1 1 2 3 3 4 5 5 7 7 8 9 9 10 11 12 12 12 11 10 9 9 9 8 8 7 6 6 5 4 3 2 2
9 8 7 5 5 4 3 3 2 2 2 2 2 2 3 3 4 5 6 7 8 8 8 10 11 12 12 12 11 11 10 9 9 8 8 7 7 6 6 5 4 3 3
10 8 7 7 6 5 4 4 3 3 3 3 3 2 3 3 4 5 6 7 7 7 8 9 10 11 12 12 11 11 10 9 9 9 8 7 7 7 6 5 5 4 4
9 8 7 7 6 6 5 5 4 3 3 3 3 3 3 4 5 6 6 6 7 7 8 9 10 11 12 12 12 11 11 10 9 8 8 8 8 7 6 6 5 5 5
8 8 8 7 6 7 6 6 5 5 4 4 4 4 4 4 5 5 5 6 6 7 8 9 9 10 11 12 12 11 11 10 9 9 8 8 8 7 7 6 6 6 6
8 8 8 7 7 8 7 7 6 5 5 5 5 5 5 4 4 4 4 5 5 6 7 8 9 10 11 12 12 12 11 11 10 9 9 8 8 7 7 7 7 7 7
8 8 7 7 8 8 8 7 7 6 6 6 6 5 5 5 5 4 4 5 5 6 7 8 9 10 11 12 12 12 12 11 10 10 9 9 9 8 8 8 8 8 8
8 8 8 8 8 8 8 8 8 7 7 6 6 6 6 6 5 5 5 5 5 6 7 8 8 9 11 11 12 12 12 11 11 10 10 10 9 9 9 9 9 10 10
9 9 9 9 8 8 8 8 8 7 7 7 7 7 7 7 6 6 5 5 5 6 7 8 8 9 10 11 12 12 12 11 11 11 12 11 10 10 11 11 11 11 11
9 9 9 9 9 8 8 8 7 7 7 7 7 8 8 8 7 7 6 6 6 7 8 8 8 9 10 11 12 13 13 12 12 12 12 12 11 11 12 12 12 12 12
9 9 9 8 8 8 7 7 7 8 8 8 8 8 8 8 8 8 7 7 7 7 8 9 9 9 10 11 12 13 14 14 13 14 14 14 14 14 13 13 14 14 15
10 9 9 9 9 8 8 8 8 8 9 9 9 9 9 8 8 8 7 7 8 8 9 10 10 10 11 12 13 14 14 15 15 16 16 16 16 16 16 15 16 17 17
10 9 9 9 9 10 10 9 9 9 10 10 10 10 9 9 9 8 8 9 9 10 10 11 12 12 13 13 14 15 15 16 17 17 18 18 18 18 18 18 19 20 20
11 11 11 11 11 11 10 10 10 10 10 10 10 9 9 9 8 9 9 10 10 10 11 12 12 14 14 15 16 17 17 18 18 19 20 20 20 20 20 21 22 22 23
12 12 12 12 12 12 11 11 11 11 11 11 10 10 10 10 10 10 10 11 12 12 13 13 15 16 16 17 18 19 19 20 20 21 22 22 23 23 24 24 25 25 26
12 12 12 12 12 12 12 12 12 12 12 12 12 11 11 12 12 12 13 14 14 14 15 16 17 17 18 19 20 21 21 22 22 23 24 25 26 26 27 27 28 28 28
13 13 13 13 13 13 13 13 13 14 13 13 13 13 13 13 14 15 15 15 16 16 17 18 19 20 21 22 22 23 23 24 24 25 26 27 28 28 29 30 31 31 31
14 14 14 14 14 14 14 14 14 14 14 14 14 14 15 16 16 17 17 17 18 19 19 20 21 22 23 24 24 25 25 26 27 28 29 30 30 31 32 32 33 34 35
14 15 15 15 15 15 15 16 16 16 15 15 15 16 16 17 18 18 18 19 20 20 21 22 23 24 25 26 26 27 28 29 29 30 31 32 32 33 34 35 35 36 37
15 16 16 16 17 17 17 17 17 17 16 17 17 18 18 19 20 20 20 21 22 22 23 24 25 26 27 28 28 29 30 31 32 32 33 34 35 36 37 37 38 39 40
16 16 16 17 17 17 17 17 17 18 19 19 19 20 20 21 21 22 23 24 24 25 26 26 27 28 29 30 31 32 32 33 34 34 36 37 38 39 39 40 41 42 43
18 18 18 18 18 18 18 19 19 20 21 21 21 22 22 23 24 24 25 26 26 27 28 28 29 30 31 32 33 34 34 35 36 37 38 39 40 40 41 42 44 45 46
19 19 19 19 20 20 20 21 22 22 22 23 23 23 24 25 26 26 27 27 28 29 29 30 31 32 33 34 35 36 37 38 39 40 41 41 41 42 43 44 46 47 48
20 20 20 20 21 21 22 23 23 24 24 24 25 26 26 27 27 28 29 29 30 31 32 33 34 35 35 36 37 38 39 40 41 42 42 43 43 44 45 46 47 49 50
21 21 22 22 22 22 23 24 25 25 26 26 27 28 28 29 30 30 31 32 33 35 35 36 37 37 38 39 40 41 42 43 43 44 44 44 45 46 47 49 50 51 51
22 23 23 24 24 25 25 26 27 28 28 29 29 30 31 31 32 33 34 35 36 37 38 39 40 41 41 42 43 43 44 45 45 46 46 47 48 49 50 51 52 52 52
Wind_Direction
216 213 218 221 220 230 237 249 252 264 301 331 345 352 359 0 3 7 10 13 13 15 19 21 20 19 18 18 17 15 14 14 12 13 14 17 20 17 15 12 8 6 354
221 220 223 225 229 239 241 248 243 254 273 297 311 330 348 353 357 2 5 8 10 12 16 17 17 17 16 15 15 15 15 16 14 15 18 21 17 14 11 7 0 356 337
219 217 222 231 236 241 246 245 247 261 270 281 294 314 337 349 353 356 358 3 5 6 8 10 14 15 14 14 14 13 13 13 14 15 17 20 18 14 10 5 357 349 337
217 218 224 233 241 246 250 244 248 259 265 273 284 304 327 338 343 348 352 358 360 2 5 9 14 15 15 14 13 12 11 11 10 9 12 11 11 9 6 1 350 338 328
217 225 232 238 243 251 253 250 247 257 265 271 278 292 308 318 329 338 346 354 359 2 4 12 14 12 13 13 11 10 9 9 7 5 4 4 2 359 356 352 347 338 328
221 230 235 240 247 253 254 254 256 261 266 268 275 285 295 304 316 329 336 345 353 357 2 8 12 12 10 11 11 10 8 6 4 2 359 356 355 353 348 344 342 335 327
228 230 236 247 250 250 252 255 259 260 263 266 268 276 286 292 302 311 318 329 338 346 354 0 4 5 6 6 7 7 5 2 360 358 354 350 348 345 341 334 328 323 319
232 236 244 250 252 252 253 254 257 261 261 260 263 273 281 283 288 295 304 315 327 337 344 350 353 355 357 359 2 1 359 358 355 351 347 341 339 336 334 329 321 315 313
233 244 249 251 252 253 255 257 257 256 255 259 265 273 275 278 283 287 294 302 312 326 337 341 343 343 346 349 352 354 353 351 349 347 346 341 335 330 328 325 321 316 310
244 246 247 248 249 249 250 251 250 252 259 264 268 272 273 277 280 283 286 292 297 310 323 332 333 335 338 340 343 346 346 345 344 344 343 340 335 331 328 323 319 316 310
251 249 247 246 244 241 243 248 252 257 260 263 267 272 273 275 278 281 280 283 291 304 313 322 325 327 330 334 338 340 340 337 335 336 336 335 332 329 326 323 318 315 311
250 250 250 249 246 245 245 249 253 255 258 262 269 271 274 274 274 276 274 279 287 298 307 315 317 319 321 325 328 331 332 331 329 329 329 329 327 325 322 320 318 315 312
252 250 252 251 251 249 248 250 252 257 263 269 272 273 273 273 275 275 275 280 287 295 302 308 312 314 316 319 322 324 324 324 323 323 323 322 321 320 318 316 315 314 312
254 254 254 253 255 253 251 251 255 260 266 269 270 273 273 274 276 279 280 282 288 294 302 304 307 310 314 316 317 318 319 319 319 319 318 317 316 315 314 313 312 311 310
256 256 255 254 253 253 253 254 258 263 267 268 268 273 273 275 278 283 284 285 291 295 297 301 305 308 310 312 313 313 314 314 314 314 314 313 312 311 311 310 309 308 307
258 256 256 254 253 253 254 257 262 264 268 270 269 271 274 279 281 283 286 289 291 293 297 301 304 306 308 310 310 310 311 311 311 311 311 310 310 310 309 309 308 307 305
260 258 258 258 258 258 258 259 264 266 268 270 269 270 273 278 281 284 287 290 292 294 297 300 302 305 307 308 309 309 309 310 311 310 310 309 309 308 308 308 307 306 305
262 262 260 258 258 261 262 263 266 267 270 270 271 273 277 279 283 285 288 290 292 294 297 299 302 303 304 305 307 308 309 309 309 309 309 308 308 307 307 306 306 306 306
265 262 261 260 260 261 264 265 267 268 269 269 271 274 280 282 283 285 287 289 291 292 294 297 300 302 303 304 305 306 306 308 308 309 308 307 307 306 306 306 306 305 305
269 264 263 264 264 264 265 267 268 268 270 271 273 276 280 282 284 286 286 288 290 291 294 296 299 301 303 303 304 305 305 306 306 307 307 307 307 306 306 305 305 304 304
269 268 266 266 267 267 266 268 270 271 272 274 276 279 282 283 285 286 287 289 291 293 294 296 298 300 301 302 303 304 304 305 305 305 306 306 306 306 305 305 304 304 304
268 269 268 267 267 268 269 270 272 274 275 276 278 280 283 285 286 287 288 290 291 292 294 296 298 300 301 302 303 303 304 304 304 305 305 306 306 305 305 304 304 304 304
268 268 268 268 268 269 270 271 274 276 278 279 279 281 283 285 286 287 289 290 291 293 295 297 298 299 301 302 302 303 303 303 304 304 305 306 305 305 304 304 304 304 304
268 269 269 270 271 271 272 273 275 277 278 280 281 282 284 285 286 287 288 289 291 293 294 296 297 298 299 301 302 302 302 303 303 304 305 305 305 304 304 304 304 304 303
269 270 271 271 272 274 275 275 275 277 278 280 281 283 284 285 286 286 288 289 290 292 294 295 296 297 298 300 301 301 301 302 302 303 304 304 304 303 303 303 303 303 303
271 273 273 273 274 275 275 276 277 278 278 280 281 283 284 285 286 287 289 290 291 292 293 294 295 296 297 298 299 300 301 301 301 302 302 303 303 303 303 303 303 303 303
Height
5877 5878 5880 5881 5881 5882 5883 5883 5884 5884 5884 5883 5883 5883 5882 5882 5881 5880 5879 5877 5876 5875 5873 5872 5870 5868 5866 5864 5862 5861 5860 5859 5857 5857 5856 5855 5855 5855 5855 5855 5855 5855 5856
5876 5877 5879 5880 5881 5881 5882 5882 5882 5883 5883 5883 5883 5882 5882 5881 5881 5879 5878 5877 5876 5875 5874 5872 5871 5869 5867 5865 5863 5861 5860 5859 5858 5857 5856 5856 5856 5855 5855 5855 5855 5856 5856
5875 5876 5877 5878 5879 5880 5880 5881 5881 5882 5882 5882 5882 5881 5881 5880 5880 5879 5878 5877 5876 5875 5874 5873 5871 5869 5868 5866 5864 5862 5860 5859 5858 5857 5857 5857 5856 5856 5856 5856 5856 5856 5856
5873 5875 5876 5877 5878 5878 5879 5880 5880 5880 5880 5880 5880 5880 5880 5880 5879 5878 5877 5877 5876 5875 5873 5872 5871 5870 5868 5866 5864 5862 5861 5860 5859 5858 5857 5857 5856 5856 5856 5856 5856 5856 5856
5871 5873 5874 5875 5876 5877 5877 5878 5878 5878 5879 5879 5879 5879 5879 5878 5878 5877 5876 5876 5875 5874 5873 5872 5871 5869 5868 5867 5865 5863 5861 5860 5859 5858 5858 5857 5857 5856 5856 5856 5856 5856 5856
5870 5871 5872 5873 5874 5875 5876 5876 5877 5877 5877 5877 5877 5877 5877 5877 5876 5876 5875 5875 5874 5874 5873 5872 5871 5869 5868 5867 5865 5864 5862 5861 5859 5859 5858 5857 5857 5856 5856 5856 5856 5856 5855
5868 5869 5870 5871 5872 5873 5874 5874 5875 5875 5875 5875 5875 5875 5875 5875 5875 5874 5874 5874 5873 5873 5872 5871 5871 5869 5868 5867 5865 5864 5862 5861 5860 5859 5858 5857 5857 5856 5856 5855 5855 5855 5855
5867 5868 5869 5870 5870 5871 5871 5872 5872 5873 5873 5873 5873 5873 5873 5872 5872 5872 5872 5872 5872 5872 5871 5871 5870 5869 5868 5867 5865 5864 5863 5861 5860 5859 5858 5857 5856 5855 5855 5854 5854 5854 5853
5865 5866 5867 5868 5868 5868 5869 5869 5870 5870 5871 5871 5871 5871 5870 5870 5870 5870 5870 5870 5870 5870 5870 5869 5869 5868 5867 5866 5865 5864 5862 5861 5860 5858 5857 5856 5855 5854 5853 5852 5852 5852 5851
5863 5864 5865 5865 5865 5866 5866 5867 5868 5868 5869 5869 5869 5868 5867 5867 5867 5867 5867 5868 5868 5868 5868 5868 5868 5867 5866 5865 5864 5863 5861 5860 5859 5857 5856 5854 5853 5852 5851 5850 5849 5849 5849
5861 5862 5863 5863 5863 5864 5864 5865 5866 5867 5867 5867 5866 5865 5865 5864 5864 5863 5864 5865 5866 5866 5866 5866 5866 5866 5865 5864 5863 5861 5860 5859 5857 5856 5854 5853 5852 5850 5849 5848 5847 5846 5845
5859 5860 5860 5861 5861 5862 5863 5864 5864 5865 5865 5865 5864 5863 5862 5861 5861 5861 5861 5862 5863 5864 5864 5864 5864 5863 5863 5862 5861 5859 5858 5857 5855 5854 5852 5851 5849 5848 5846 5845 5843 5842 5841
5857 5858 5858 5859 5859 5860 5861 5862 5862 5863 5863 5862 5862 5861 5860 5859 5859 5859 5860 5860 5861 5862 5862 5862 5862 5861 5860 5859 5858 5857 5856 5854 5853 5851 5849 5848 5846 5844 5843 5841 5839 5838 5836
5854 5855 5856 5856 5857 5858 5858 5859 5860 5860 5860 5860 5860 5859 5858 5858 5857 5858 5858 5859 5859 5859 5859 5859 5859 5858 5857 5856 5855 5854 5852 5851 5849 5847 5846 5844 5842 5840 5838 5836 5834 5832 5831
5852 5852 5853 5853 5854 5855 5856 5857 5857 5858 5858 5858 5858 5857 5857 5857 5856 5856 5857 5857 5857 5857 5857 5856 5856 5855 5854 5852 5851 5850 5848 5846 5845 5843 5841 5839 5837 5835 5832 5830 5828 5826 5824
5849 5850 5850 5851 5852 5852 5853 5854 5855 5855 5855 5855 5855 5855 5855 5855 5855 5854 5854 5855 5854 5854 5854 5853 5852 5851 5850 5848 5847 5845 5844 5842 5840 5838 5835 5833 5830 5828 5826 5823 5821 5818 5816
5847 5847 5847 5848 5849 5849 5850 5851 5851 5851 5852 5852 5852 5853 5853 5853 5852 5852 5852 5851 5851 5851 5850 5849 5848 5846 5845 5843 5842 5840 5838 5836 5834 5832 5829 5827 5824 5821 5819 5816 5813 5810 5807
5843 5844 5844 5845 5846 5846 5847 5847 5848 5848 5848 5849 5849 5849 5849 5849 5849 5849 5848 5848 5847 5846 5845 5844 5843 5841 5840 5838 5836 5834 5832 5830 5828 5825 5822 5820 5817 5814 5811 5808 5805 5801 5798
5840 5840 5841 5841 5842 5843 5843 5844 5844 5844 5845 5845 5845 5845 5845 5845 5845 5844 5844 5843 5842 5841 5840 5839 5837 5836 5834 5832 5830 5828 5826 5823 5820 5817 5814 5811 5808 5805 5802 5799 5796 5792 5789
5836 5836 5837 5838 5838 5839 5839 5840 5840 5840 5841 5841 5841 5841 5841 5840 5840 5840 5839 5838 5837 5836 5835 5833 5831 5829 5827 5825 5823 5820 5818 5816 5813 5810 5806 5802 5799 5795 5792 5788 5785 5782 5778
5832 5832 5833 5833 5834 5834 5834 5835 5835 5836 5836 5836 5836 5836 5835 5835 5834 5834 5833 5832 5831 5830 5828 5826 5825 5822 5820 5817 5815 5812 5810 5807 5804 5801 5797 5793 5789 5785 5781 5777 5774 5770 5766
5828 5828 5828 5829 5829 5829 5830 5830 5831 5831 5830 5831 5830 5830 5829 5829 5828 5827 5826 5825 5824 5822 5821 5819 5817 5815 5812 5809 5807 5804 5801 5798 5795 5791 5788 5784 5779 5775 5770 5766 5762 5757 5753
5823 5823 5823 5824 5824 5824 5824 5825 5825 5824 5824 5824 5824 5824 5823 5822 5821 5820 5819 5818 5816 5814 5813 5811 5809 5806 5804 5801 5797 5794 5791 5788 5784 5781 5777 5773 5768 5764 5759 5754 5749 5744 5739
5818 5818 5818 5818 5818 5818 5818 5818 5818 5818 5818 5817 5817 5816 5815 5815 5814 5812 5811 5810 5808 5806 5804 5802 5800 5797 5794 5791 5788 5784 5781 5777 5773 5769 5765 5761 5756 5752 5747 5742 5737 5731 5726
5812 5812 5812 5812 5812 5812 5812 5811 5811 5811 5810 5810 5809 5808 5807 5806 5805 5804 5803 5801 5799 5797 5795 5792 5790 5787 5784 5781 5777 5773 5770 5766 5762 5758 5754 5749 5744 5740 5734 5729 5723 5717 5712
5805 5805 5805 5805 5805 5805 5804 5804 5803 5803 5802 5802 5801 5800 5799 5798 5796 5795 5793 5791 5790 5787 5784 5782 5779 5776 5773 5769 5766 5762 5758 5753 5749 5745 5741 5736 5731 5726 5721 5715 5709 5703 5697